• Join FlightAware (Why Join?)
  • Login
  • US Flag GB Flag 
10:10 EST


 

Airport Tracker/Info


-or-


 

Live Flight TrackerFlight Track Log ✈ SWA59 ✈ 26-Apr-2013 ✈ KSTL - KDAL

Flight Track Log - Related Links

Times and Time Zones

All times are in EDT time to prevent confusion due to time zone crossing. See the SWA59 flight status page for this flight to view local times or setup timezone preferences in your user account.

Time Position Orientation Groundspeed Altitude Reporting Facility
EDT Latitude Longitude Course Direction KTS MPH feet Rate Location/Type
20:11 38.7333 -90.3333 113° Southeast 147 169 1,300  Level Gateway (St. Louis) TRACON
20:12 38.7167 -90.2833 113° Southeast 208 239 3,300 1,820 Climbing Gateway (St. Louis) TRACON
20:13 38.6981 -90.2633 140° Southeast 208 239 4,000 2,258 Climbing Kansas City Center
20:14 38.6175 -90.2436 169° South 242 278 6,800 1,728 Climbing Kansas City Center
20:15 38.5644 -90.3078 223° Southwest 258 297 7,600 1,918 Climbing Kansas City Center
20:16 38.5144 -90.3906 232° Southwest 273 314 10,700 3,836 Climbing Kansas City Center
20:17 38.4553 -90.4789 229° Southwest 314 361 15,400 3,696 Climbing Kansas City Center
20:18 38.4039 -90.5597 231° Southwest 298 343 18,400 2,710 Climbing Kansas City Center
20:19 38.3478 -90.6453 230° Southwest 313 360 21,000 2,529 Climbing Kansas City Center
20:20 38.2886 -90.7350 230° Southwest 328 377 23,500 2,274 Climbing Kansas City Center
20:21 38.2264 -90.8256 229° Southwest 338 389 25,700 2,177 Climbing Kansas City Center
20:22 38.1542 -90.9142 224° Southwest 357 411 28,000 2,410 Climbing Kansas City Center
20:23 38.0861 -91.0025 226° Southwest 352 405 30,600 2,496 Climbing Kansas City Center
20:24 38.0067 -91.1011 224° Southwest 342 394 33,200 1,440 Climbing Kansas City Center
20:25 37.9408 -91.1872 226° Southwest 338 389 33,600 443 Climbing Kansas City Center
20:26 37.8681 -91.2819 226° Southwest 355 409 34,100 885 Climbing Kansas City Center
20:27 37.7875 -91.3822 225° Southwest 377 434 35,400 1,623 Climbing Kansas City Center
20:28 37.7083 -91.4819 225° Southwest 390 449 37,400 1,279 Climbing Kansas City Center
20:29 37.6308 -91.5800 225° Southwest 393 452 38,000 290 Climbing Kansas City Center
20:30 37.5511 -91.6783 224° Southwest 395 455 38,000  Level Kansas City Center
20:31 37.4736 -91.7769 225° Southwest 394 453 38,000  Level Kansas City Center
20:32 37.3958 -91.8739 225° Southwest 391 450 38,000  Level Kansas City Center
20:33 37.3175 -91.9706 224° Southwest 391 450 38,000  Level Kansas City Center
20:34 37.2233 -92.0883 225° Southwest 394 453 38,000  Level Kansas City Center
20:35 37.1439 -92.1847 224° Southwest 395 455 38,000  Level Kansas City Center
20:36 37.0656 -92.2819 225° Southwest 394 453 38,000  Level Kansas City Center
20:37 36.9847 -92.3797 224° Southwest 396 456 38,000  Level Kansas City Center
20:38 36.9047 -92.4775 224° Southwest 399 459 38,000  Level Kansas City Center
20:39 36.8419 -92.5528 224° Southwest 404 465 38,000  Level Memphis Center
20:40 36.7650 -92.6517 226° Southwest 404 465 38,000  Level Memphis Center
20:41 36.6861 -92.7503 225° Southwest 404 465 38,000  Level Memphis Center
20:42 36.6008 -92.8511 224° Southwest 397 457 38,000  Level Memphis Center
20:43 36.5217 -92.9442 223° Southwest 397 457 38,000  Level Memphis Center
20:44 36.4492 -93.0269 223° Southwest 397 457 38,000  Level Memphis Center
20:45 36.3697 -93.1225 224° Southwest 397 457 38,000  Level Memphis Center
20:46 36.2864 -93.2200 223° Southwest 403 464 38,000  Level Memphis Center
20:47 36.2092 -93.3125 224° Southwest 403 464 38,000  Level Memphis Center
20:48 36.1278 -93.4072 223° Southwest 403 464 38,000  Level Memphis Center
20:49 36.0481 -93.5017 224° Southwest 403 464 38,000  Level Memphis Center
20:50 35.9686 -93.5961 224° Southwest 403 464 38,000  Level Memphis Center
20:51 35.8889 -93.6906 224° Southwest 403 464 38,000  Level Memphis Center
20:52 35.8114 -93.7819 224° Southwest 403 464 38,000  Level Memphis Center
20:53 35.7317 -93.8708 222° Southwest 397 457 38,000  Level Memphis Center
20:54 35.6542 -93.9619 224° Southwest 392 451 38,000  Level Memphis Center
20:55 35.5742 -94.0531 223° Southwest 392 451 38,000  Level Memphis Center
20:56 35.4983 -94.1467 225° Southwest 392 451 38,000  Level Memphis Center
20:57 35.4186 -94.2347 222° Southwest 392 451 38,000  Level Memphis Center
20:58 35.3386 -94.3225 222° Southwest 392 451 38,000  Level Memphis Center
20:59 35.2606 -94.4131 223° Southwest 387 445 38,000  Level Memphis Center
21:00 35.1808 -94.4956 220° Southwest 387 445 38,000  Level Memphis Center
21:02 35.0483 -94.6442 223° Southwest 376 433 38,000  Level Fort Worth Center
21:03 34.9689 -94.7331 223° Southwest 383 441 38,000  Level Fort Worth Center
21:04 34.8850 -94.8164 219° Southwest 388 447 38,000  Level Fort Worth Center
21:05 34.8094 -94.8872 218° Southwest 388 447 38,000 -50 Level Fort Worth Center
21:06 34.7233 -94.9681 218° Southwest 394 453 37,900 -1,350 Descending Fort Worth Center
21:07 34.6394 -95.0486 218° Southwest 389 448 35,300 -2,350 Descending Fort Worth Center
21:08 34.5553 -95.1292 218° Southwest 389 448 33,200 -2,050 Descending Fort Worth Center
21:09 34.4775 -95.2042 218° Southwest 382 440 31,200 -1,950 Descending Fort Worth Center
21:10 34.4014 -95.2742 217° Southwest 370 426 29,300 -1,900 Descending Fort Worth Center
21:11 34.3275 -95.3464 219° Southwest 356 410 27,400 -1,850 Descending Fort Worth Center
21:12 34.2514 -95.4161 217° Southwest 351 404 25,600 -1,700 Descending Fort Worth Center
21:13 34.1794 -95.4831 218° Southwest 345 397 24,000 -800 Descending Fort Worth Center
21:14 34.1094 -95.5497 218° Southwest 345 397 24,000  Level Fort Worth Center
21:15 34.0375 -95.6164 218° Southwest 330 380 24,000  Level Fort Worth Center
21:16 33.9675 -95.6831 218° Southwest 330 380 24,000  Level Fort Worth Center
21:17 33.8953 -95.7519 218° Southwest 330 380 24,000 -550 Level Fort Worth Center
21:18 33.8253 -95.8183 218° Southwest 330 380 22,900 -1,450 Descending Fort Worth Center
21:19 33.7489 -95.8897 218° Southwest 330 380 21,100 -1,750 Descending Fort Worth Center
21:20 33.6889 -95.9431 216° Southwest 311 358 19,400 -1,650 Descending Fort Worth Center
21:21 33.6186 -96.0067 217° Southwest 296 341 17,800 -1,600 Descending Fort Worth Center
21:22 33.5631 -96.0597 219° Southwest 291 335 16,200 -1,650 Descending Fort Worth Center
21:23 33.4928 -96.1233 217° Southwest 296 341 14,500 -1,650 Descending Fort Worth Center
21:24 33.4389 -96.1739 218° Southwest 290 334 12,900 -1,650 Descending Fort Worth Center
21:25 33.3706 -96.2369 218° Southwest 290 334 11,200 -1,400 Descending Fort Worth Center
21:26 33.3167 -96.2847 217° Southwest 290 334 10,100 -1,150 Descending Fort Worth Center
21:27 33.2547 -96.3478 220° Southwest 279 321 8,900 -1,350 Descending Fort Worth Center
21:28 33.2156 -96.4103 233° Southwest 273 314 7,400 -1,250 Descending Fort Worth Center
21:29 33.1681 -96.4853 233° Southwest 262 302 6,400 -1,150 Descending Fort Worth Center
21:30 33.1350 -96.5403 234° Southwest 243 280 5,100 -1,150 Descending Fort Worth Center
21:31 33.0981 -96.6025 235° Southwest 243 280 4,100 -1,050 Descending Fort Worth Center
21:32 33.0586 -96.6672 234° Southwest 236 272 3,000 -500 Descending Fort Worth Center
21:33 33.0278 -96.7147 232° Southwest 220 253 3,100 53 Climbing Fort Worth Center
21:34 33.0000 -96.7667 237° Southwest 200 230 3,100  Level Dallas / Fort Worth TRACON
21:35 32.9667 -96.8167 232° Southwest 198 228 3,100 -443 Level Dallas / Fort Worth TRACON
21:36 32.9333 -96.8833 239° Southwest 177 204 2,200 -645 Descending Dallas / Fort Worth TRACON
21:37 32.9000 -96.9000 203° Southwest 127 146 1,800 -545 Descending Dallas / Fort Worth TRACON
21:38 32.8667 -96.8833 157° South 130 150 1,100 -689 Descending Dallas / Fort Worth TRACON
21:40 32.8471 -96.8518 228° Southwest  Level Estimated
21:47 32.8471 -96.8518 228° Southwest  Level Estimated